Miscellaneous Local Product
Issued by NWS Hastings, NE

Home | Current Version | Previous Version | Graphics & Text | Print | Product List | Glossary On
Versions: 1 2 3 4 5 6 7 8 9 10 11 12 13 14 15 16 17 18 19 20 21 22 23 24 25 26 27 28 29 30 31 32 33 34 35 36 37 38 39 40 41 42 43 44 45 46 47 48 49 50
000
AXUS43 KGID 181902
MISGRI

GID CWA HOURLY WEATHER ROUNDUP
NATIONAL WEATHER SERVICE HASTINGS NE
200 PM CDT FRI APR 18 2014

NOTE: "FAIR" INDICATES FEW OR NO CLOUDS BELOW 12,000 FEET WITH NO
SIGNIFICANT WEATHER AND/OR OBSTRUCTIONS TO VISIBILITY.

...SOUTH CENTRAL NEBRASKA...

CITY           SKY/WX    TMP DP  RH WIND       PRES   REMARKS
GRAND ISLAND   MOSUNNY   66  42  41 S26G33    30.09F
HASTINGS       MOSUNNY   65  40  39 S17G32    30.09F
KEARNEY        MOSUNNY   66  43  42 S28G35    30.07F
ORD            SUNNY     66  40  38 S26G37    30.01F
YORK           MOSUNNY   66  41  39 S22       30.13F
AURORA         MOSUNNY   63  41  45 S18G26    30.11F
LEXINGTON      MOSUNNY   67  44  43 S25G32    30.03F
HOLDREGE       MOSUNNY   65  41  40 S29G35    30.06F
HEBRON         MOSUNNY   67  41  39 S20G26    30.15F

...NEBRASKA PANHANDLE...

CITY           SKY/WX    TMP DP  RH WIND       PRES   REMARKS
CHADRON        CLOUDY    74  37  26 W15G22    29.78F
ALLIANCE       CLOUDY    74  38  27 S20       29.87F
SCOTTSBLUFF    CLOUDY    77  32  19 SW15G22   29.85F
SIDNEY         CLOUDY    73  33  23 S16       29.93F

...WESTERN AND NORTH CENTRAL NEBRASKA...

CITY           SKY/WX    TMP DP  RH WIND       PRES   REMARKS
VALENTINE      PTSUNNY   75  32  20 S29G37    29.85F
AINSWORTH      MOSUNNY   72  37  27 S29G36    29.90S
ONEILL         SUNNY     69  37  30 S28G37    29.99F
BROKEN BOW     MOSUNNY   64  42  44 S25G36    30.00F
IMPERIAL       MOSUNNY   72  38  29 S20G26    29.96F
NORTH PLATTE   MOSUNNY   68  39  34 S25G33    29.97F
MCCOOK         SUNNY     69  41  36 S24G31    30.01F

...EASTERN NEBRASKA...

CITY           SKY/WX    TMP DP  RH WIND       PRES   REMARKS
NORFOLK        SUNNY     65  39  38 S23G37    30.09F
SO SIOUX CITY  SUNNY     65  33  30 S24G35    30.16F
TEKAMAH        SUNNY     65  33  30 S20G29    30.18F
COLUMBUS       SUNNY     64  39  39 S22G31    30.14F
ALBION         SUNNY     66  38  36 S30G36    30.08F
OMAHA EPPLEY   MOSUNNY   64  34  32 S20       30.19F
OFFUTT AFB     SUNNY     64  36  35 SE15G21   30.20F
MILLARD        SUNNY     61  35  37 SE13G24   30.20F
LINCOLN        SUNNY     68  38  33 S17G28    30.17F
NEBRASKA CITY  SUNNY     63  35  36 S12G21    30.23F
BEATRICE       SUNNY     67  38  35 S13G21    30.17F
FALLS CITY     NOT AVBL

...NORTHERN KANSAS...

CITY           SKY/WX    TMP DP  RH WIND       PRES   REMARKS
GOODLAND       SUNNY     69  39  33 S23G30    30.00F
HILL CITY      SUNNY     69  43  38 S18G30    30.08F
PHILLIPSBURG   SUNNY     72  39  30 S26       30.08F
SMITH CENTER   SUNNY     68  43  40 S21G30    30.11F
BELOIT         SUNNY     70  41  35 S17G28    30.13F
HAYS           SUNNY     68  45  42 S22G31    30.12F
RUSSELL        SUNNY     69  42  37 S26G32    30.12F
CONCORDIA      SUNNY     66  42  41 S17G30    30.16F
SALINA         SUNNY     70  43  37 S15G25    30.18F
TOPEKA         SUNNY     66  40  38 S6        30.25F



USA.gov is the U.S. government's official web portal to all federal, state and local government web resources and services.